A/2019 O2

Japanese version
Home page
Updated on March 6, 2020

---------------------------------------------------------------------

* Profile

Discovery Date July 24, 2019
Magnitude 20.5 mag
Discoverer Pan-STARRS 1 telescope (Haleakala)

* Orbital Elements

Epoch 2023 Apr. 6.0 TT = JDT 2460040.5
T 2023 Apr. 7.62353 TT                                  Williams
q   9.6805816            (2000.0)            P               Q
z  +0.0172662      Peri.  129.66628     -0.39181519     -0.53994216
 +/-0.0000000      Node    48.26121     -0.76981047     -0.25102427
e   0.8328530      Incl.   93.30692     +0.50385781     -0.80339858
H    9.5
From 58 observations 2019 July 24-Dec. 29, mean residual 0".3.

* Magnitudes Graph

        H = 9.2  G = 0.15

---------------------------------------------------------------------

The orbital elements are published on M.P.E.C. 2020-A105.
The magnitudes graphs are made with Comet for Windows.

---------------------------------------------------------------------

Copyright(C) Seiichi Yoshida (comet@aerith.net). All rights reserved.